Theta_e
335 335 337 336 337 339 340 340 339 339 338 338 337 334 334 335 334 333 333 335 334 333 329 323 318 315 314 315 313 314 316 314 311 311 313 316 321 325 326 324 320 321 323 326 326 326 326 325 326 323 321 326 326 324 324 324 323 322 321 320 319 319
334 335 336 336 337 338 339 339 340 340 340 340 337 334 336 336 335 335 335 336 334 333 332 329 325 320 316 317 317 313 315 316 314 310 310 312 317 324 328 326 321 322 324 325 326 326 326 325 326 322 320 326 327 325 324 325 325 323 322 321 320 320
332 334 335 336 337 337 339 339 340 340 341 340 337 335 337 336 334 333 334 335 334 332 332 330 330 327 318 318 320 317 316 318 318 313 310 310 312 321 329 327 324 324 325 325 326 327 326 327 326 321 320 324 326 324 325 326 326 325 324 322 321 321
331 333 334 335 335 336 338 338 339 339 340 340 338 337 337 336 335 333 333 334 334 333 334 334 334 331 324 320 322 320 318 319 320 317 312 310 310 319 328 329 326 325 326 326 327 327 326 328 325 320 321 324 325 325 325 328 327 326 324 323 322 321
331 332 332 333 334 334 335 336 337 337 339 339 338 337 336 336 336 334 333 335 336 336 337 338 335 333 330 326 323 320 318 319 321 321 316 312 310 317 327 330 329 327 327 328 328 327 327 328 324 319 322 324 326 327 327 329 329 327 325 324 323 322
331 332 331 331 331 331 331 331 334 336 337 337 337 337 336 336 336 334 335 335 336 337 337 337 334 332 331 327 326 323 320 321 323 323 319 315 311 316 326 330 330 329 328 329 330 328 328 327 322 321 324 326 328 328 329 330 328 326 325 325 324 323
331 332 331 330 329 329 328 328 332 335 336 336 336 336 336 335 335 334 334 335 336 337 336 334 332 331 329 326 327 326 323 323 324 324 321 319 315 314 324 330 330 331 330 330 329 328 329 326 321 323 327 328 328 329 330 330 328 326 325 325 324 324
332 333 331 330 329 328 328 327 329 332 334 335 335 336 335 335 334 333 333 335 335 335 335 333 330 328 326 325 326 327 326 325 326 326 323 322 319 315 320 328 331 332 331 330 329 328 328 325 322 326 329 329 329 330 330 330 328 327 326 326 325 324
332 332 331 330 330 329 328 327 326 330 333 334 335 334 334 334 334 334 335 336 335 335 335 332 329 328 327 327 326 326 327 327 327 327 325 324 322 318 317 325 332 331 331 331 329 329 327 324 325 328 329 330 330 330 331 330 328 327 326 325 325 324
332 332 331 331 330 330 330 328 326 329 332 333 334 333 332 333 333 333 334 336 335 334 334 331 330 332 331 329 327 326 327 328 328 327 326 325 325 322 317 323 331 332 331 331 330 330 326 324 327 329 329 330 331 331 331 330 329 327 326 325 325 325
331 332 331 331 330 329 329 329 327 329 332 333 334 331 329 332 332 332 333 334 335 334 333 331 332 333 332 332 330 328 327 327 328 327 326 326 326 326 321 321 328 332 331 330 331 329 326 326 329 328 328 330 331 331 331 330 329 327 326 326 326 326
331 331 331 331 330 328 328 329 329 329 331 333 332 329 329 330 331 332 332 332 333 333 331 330 332 332 331 332 332 331 330 329 329 327 325 325 327 328 325 321 325 331 331 330 330 328 327 330 330 329 329 331 331 331 331 330 329 327 326 327 327 326
330 331 330 330 330 328 328 329 329 328 329 331 329 328 328 329 329 331 331 331 332 332 331 330 331 332 331 332 332 332 331 330 330 327 325 325 326 328 327 325 326 329 331 330 330 329 329 331 331 330 331 331 331 330 330 330 329 327 327 328 327 326
330 331 330 330 330 329 329 329 329 329 328 329 328 327 328 329 329 328 329 330 330 331 331 331 331 331 332 332 333 333 332 332 329 327 325 324 325 327 328 328 327 328 329 329 330 330 330 331 331 331 331 331 330 330 330 330 329 328 328 328 327 326
329 330 331 330 330 329 330 330 328 328 329 328 328 329 328 328 329 328 328 329 330 331 331 331 331 331 331 332 332 333 333 332 328 326 326 325 324 326 329 329 328 329 329 330 331 330 330 331 331 331 331 330 329 330 330 330 329 328 329 328 327 325
330 330 331 331 331 330 330 331 329 329 330 329 329 330 328 327 328 329 328 328 329 330 331 332 331 331 331 331 332 333 333 331 328 327 327 326 324 325 329 330 330 330 330 330 331 330 331 332 332 331 330 329 329 329 330 330 330 329 328 328 326 325
333 333 333 333 333 332 332 331 331 330 330 330 330 330 328 327 330 330 329 328 329 331 331 332 332 331 331 330 330 332 332 330 328 328 328 327 325 325 329 330 330 330 330 330 330 330 331 331 331 331 329 329 329 329 329 330 330 329 328 328 327 326
336 336 336 336 334 334 333 332 331 331 330 331 331 330 330 330 331 331 330 330 331 333 333 333 332 332 331 330 330 330 332 330 328 327 329 329 327 327 329 330 329 329 329 329 329 330 331 331 330 330 329 329 329 329 330 330 330 329 328 328 327 326
336 337 338 337 336 335 334 332 332 331 331 332 331 331 331 331 332 331 331 332 333 333 333 333 332 332 331 330 330 331 332 331 329 328 329 331 330 329 330 330 330 329 328 330 330 331 331 330 330 329 329 329 329 330 330 330 329 328 328 328 328 327
335 337 338 338 338 336 334 333 332 332 332 333 332 331 331 332 332 332 332 332 332 332 332 333 332 331 331 330 330 331 331 331 331 329 329 331 331 331 331 331 330 330 330 331 330 331 330 330 330 329 329 329 330 330 330 329 329 328 328 329 328 328
334 336 337 338 338 336 335 333 332 332 332 332 332 332 332 332 333 332 331 331 331 332 333 333 331 330 330 330 330 331 332 332 332 329 328 330 331 331 331 331 331 331 332 331 330 330 330 329 329 329 329 329 330 330 329 329 329 329 328 329 329 328
331 333 335 335 336 336 334 332 333 333 332 331 331 333 332 333 334 332 330 331 332 332 332 332 331 330 329 329 331 332 332 332 331 328 327 328 329 330 330 330 330 331 330 330 329 329 329 329 329 329 328 328 328 328 328 329 329 329 328 329 329 328
330 332 333 334 335 335 333 332 333 334 333 332 332 333 333 334 334 331 329 330 331 332 332 331 330 329 328 329 331 332 332 331 330 327 326 326 326 327 327 328 329 329 328 328 329 329 329 329 329 329 328 327 327 327 327 327 328 328 329 329 328 328
332 332 333 334 334 334 333 333 334 334 334 333 332 331 333 335 334 331 329 330 332 332 332 332 332 330 330 330 331 332 332 331 329 328 328 327 324 323 325 327 327 327 326 327 328 329 329 329 329 329 328 327 327 326 327 327 326 327 328 329 328 328
334 335 334 334 334 333 332 333 334 334 334 334 332 329 330 333 333 330 330 331 333 332 332 332 332 332 331 331 331 331 332 331 330 330 330 329 326 322 324 326 326 325 325 325 327 329 329 329 330 330 328 328 327 326 326 327 326 326 327 327 328 328
332 334 334 334 335 334 332 331 332 333 334 334 333 329 328 330 331 330 330 331 332 332 331 331 331 331 331 330 331 331 331 331 330 330 330 330 327 324 324 325 325 325 325 326 329 330 329 329 330 330 328 328 327 327 326 326 326 326 326 326 327 327
330 331 332 334 335 334 332 330 330 331 332 333 332 329 327 329 331 331 331 331 332 331 332 332 331 330 330 330 331 331 331 331 331 330 330 329 328 327 326 326 326 326 326 327 329 330 330 329 329 329 328 328 328 327 326 326 325 326 326 326 326 326
329 329 331 332 334 335 334 332 330 329 330 330 328 326 326 328 330 331 331 332 332 331 332 332 331 330 330 330 330 330 330 330 330 330 329 329 329 328 329 328 329 329 328 329 329 329 329 329 328 327 327 328 329 328 326 326 326 325 325 326 326 326
329 328 329 331 332 334 335 333 331 330 329 329 327 326 326 328 330 331 332 332 332 331 331 332 331 330 330 330 330 330 330 330 330 329 328 329 328 328 328 329 329 329 329 329 329 328 328 328 327 327 327 328 329 328 326 327 327 326 325 325 326 325
331 329 328 330 330 332 333 334 333 331 330 330 329 328 328 329 330 332 332 331 331 331 331 331 331 330 330 330 330 330 329 330 330 329 328 328 328 328 328 328 328 328 328 328 328 328 328 328 328 328 328 328 328 328 327 326 327 326 325 325 325 324
332 330 330 330 329 330 331 332 332 330 330 329 329 329 329 330 331 332 331 330 330 330 330 331 331 330 330 330 330 330 329 330 329 329 328 328 328 328 327 327 328 328 328 328 328 328 327 328 329 329 329 329 328 328 327 327 326 326 326 325 325 324
332 331 330 330 330 329 330 331 331 330 330 329 328 328 329 330 332 332 331 330 330 330 330 330 331 330 330 330 330 329 329 329 329 329 328 328 327 327 327 327 328 327 328 328 328 328 327 328 328 329 329 329 328 328 327 327 326 326 326 326 325 324
332 331 331 330 330 329 328 330 331 331 330 328 327 327 328 331 332 332 331 330 330 329 329 330 330 330 329 329 329 329 329 328 328 328 328 328 327 327 327 327 327 327 328 328 328 328 328 329 328 328 328 328 328 328 327 327 326 326 326 326 326 324
330 330 331 331 331 330 328 329 331 331 329 327 327 328 329 331 332 331 331 331 330 329 329 329 329 330 329 329 328 328 328 327 326 326 327 328 328 328 328 327 327 327 328 328 328 328 329 329 328 327 327 327 327 328 327 326 326 326 327 326 326 325
328 328 330 330 330 330 329 329 331 332 330 328 328 329 331 333 332 332 331 331 331 330 329 329 329 329 329 329 328 328 327 327 326 326 327 328 329 328 328 327 328 328 328 328 329 328 329 329 329 327 327 327 327 327 327 326 326 327 327 327 326 326
327 327 328 328 328 329 330 329 331 332 331 330 330 331 332 333 333 333 332 331 331 330 330 329 329 329 329 329 328 327 327 328 327 327 328 329 329 328 328 328 328 328 328 329 328 328 328 329 328 327 327 327 327 327 326 326 327 327 327 328 327 327
327 327 328 328 328 330 330 329 329 330 330 330 331 332 332 333 333 333 333 332 331 331 330 330 330 329 329 327 327 327 328 328 328 328 328 329 329 328 328 328 328 328 328 328 328 328 328 328 328 327 327 327 327 326 326 326 327 327 327 328 327 327
Wind_Speed
18 18 18 18 18 18 17 16 15 14 13 11 10 9 9 8 8 9 8 8 8 7 6 7 7 9 10 12 13 12 13 17 20 20 21 22 22 21 19 17 14 12 10 8 7 8 9 10 10 11 11 12 12 12 13 13 14 14 14 14 14 14
18 18 18 18 18 18 17 17 16 15 14 13 11 10 11 10 10 11 10 10 9 8 8 8 8 8 11 11 12 12 12 14 18 20 21 22 23 23 21 19 16 14 12 9 7 7 7 9 10 9 10 10 10 10 10 11 12 12 12 12 12 12
18 17 18 18 18 18 17 17 17 16 15 14 13 12 12 11 11 12 11 11 10 10 9 9 10 10 14 13 11 12 11 12 16 19 20 22 24 24 23 21 18 15 13 11 9 7 6 8 9 8 8 8 8 8 9 10 11 11 10 10 11 11
16 17 17 17 18 17 17 18 18 17 17 16 16 14 13 12 13 12 12 12 11 11 9 9 10 10 15 15 11 12 12 12 14 18 20 21 24 26 24 22 20 17 15 12 10 8 6 7 7 6 6 7 7 7 8 8 10 10 10 10 11 12
16 16 17 17 17 17 18 18 19 19 19 18 17 16 14 13 13 14 14 13 12 11 10 10 10 11 15 14 12 13 12 13 14 16 19 21 23 26 25 23 21 19 16 13 10 8 7 6 5 5 6 6 6 6 7 7 9 10 10 10 11 11
16 16 17 18 18 18 18 19 20 19 19 18 17 16 15 14 15 16 15 14 13 12 11 11 10 12 15 14 13 13 13 13 14 16 18 20 22 26 26 24 22 20 17 14 11 9 8 6 4 4 5 5 5 6 7 7 8 9 9 9 9 9
16 17 18 18 18 18 19 20 21 19 19 18 17 16 14 16 17 16 15 15 14 12 12 12 12 13 14 12 12 13 13 14 14 16 18 20 21 25 27 25 22 20 18 15 13 11 9 7 4 4 5 5 5 6 7 7 8 8 8 7 6 7
18 18 18 19 19 19 19 20 20 19 19 18 17 15 15 16 16 15 15 15 14 12 13 13 12 12 12 11 11 12 13 14 15 17 19 20 21 24 27 26 23 21 19 16 14 12 10 6 4 4 3 4 4 5 6 6 7 7 7 6 5 5
19 19 19 20 20 20 20 20 20 20 19 17 16 16 16 16 14 13 15 15 14 14 14 12 11 10 10 10 11 13 15 15 15 17 20 21 21 23 26 27 24 21 19 17 15 13 10 7 5 4 3 3 3 4 5 5 6 6 7 6 5 5
21 21 21 22 22 22 22 21 21 21 17 15 16 16 17 16 14 15 16 16 15 15 14 11 10 9 9 9 11 14 16 16 15 16 19 22 22 22 25 27 25 21 19 18 16 14 11 8 6 5 3 2 2 3 4 3 4 5 6 6 5 5
22 22 23 23 23 23 23 22 21 19 17 15 16 16 16 16 16 15 16 16 17 16 13 11 11 10 10 10 11 13 14 15 14 14 17 22 23 22 23 26 26 23 19 17 16 14 12 10 8 6 3 2 1 2 2 2 3 5 5 5 5 4
23 23 23 24 24 24 24 23 20 18 18 17 16 15 15 16 14 13 15 17 17 16 14 13 13 13 12 12 12 12 13 13 13 12 15 20 24 24 23 25 26 24 21 18 16 14 13 11 9 7 4 3 1 1 1 1 2 3 4 4 4 4
23 23 24 24 24 24 24 23 20 19 18 17 16 15 15 15 14 12 15 17 17 16 15 15 16 15 14 13 13 14 14 13 12 13 15 19 23 25 24 25 26 25 23 20 17 15 14 12 10 8 6 4 2 1 1 1 1 2 2 3 3 3
23 23 24 24 25 25 24 23 21 19 16 15 15 15 15 16 16 16 17 17 16 16 16 16 17 17 15 14 15 15 15 13 13 14 16 19 22 25 25 25 25 25 23 21 18 15 14 13 11 8 7 4 3 3 3 2 1 1 1 2 2 2
23 23 23 24 25 25 24 23 21 18 16 15 15 16 16 15 17 19 19 17 17 17 17 17 17 17 16 16 16 17 16 15 14 16 17 18 20 24 25 24 24 24 22 20 17 14 13 13 11 9 7 6 4 4 4 3 2 2 1 1 2 2
22 22 22 23 24 25 24 23 21 17 16 16 16 18 17 14 14 19 20 19 18 18 17 17 17 17 17 17 16 17 17 16 16 17 17 16 18 22 25 24 22 22 21 19 16 13 13 13 11 9 8 7 5 5 4 4 4 2 1 2 2 2
21 21 22 23 24 25 24 23 21 19 18 17 17 19 17 15 15 18 20 20 18 17 17 17 17 17 17 18 17 17 17 17 18 18 17 16 16 19 23 23 21 20 19 17 15 13 13 13 12 10 10 8 7 6 5 5 5 3 3 4 4 3
19 20 21 22 23 24 24 23 21 20 19 18 18 19 18 17 17 17 18 18 18 18 18 17 17 17 18 19 18 18 19 18 19 19 18 16 16 18 20 20 20 19 18 16 15 15 13 12 11 11 10 9 7 7 6 6 5 4 5 5 4 4
17 19 20 20 22 24 24 23 20 20 20 19 19 20 19 18 18 17 16 16 17 17 17 16 16 17 18 19 19 19 20 20 19 19 19 17 17 18 18 18 19 18 18 16 14 14 13 12 11 11 10 8 7 7 6 6 6 5 6 6 5 4
16 17 19 20 22 25 24 23 20 19 21 21 20 20 19 18 17 15 15 16 17 16 16 15 15 17 19 19 19 20 21 20 18 18 18 17 17 17 16 17 18 17 17 16 14 13 13 12 12 11 9 8 7 7 6 7 6 6 6 7 6 5
14 15 16 17 21 24 23 21 20 19 21 21 20 20 19 19 17 15 14 15 16 16 16 15 15 18 19 19 21 22 21 18 16 15 15 16 15 15 15 16 17 16 15 16 15 14 14 12 12 11 11 10 9 8 7 7 6 6 7 8 8 7
13 12 13 14 17 20 19 19 19 20 21 21 20 20 19 20 18 14 13 14 15 16 16 16 16 18 18 19 21 21 19 16 14 14 14 14 14 14 15 15 17 17 16 16 15 15 14 12 12 12 11 11 10 9 8 8 8 8 9 9 9 9
13 12 12 14 16 16 16 17 19 21 23 22 20 20 20 19 16 12 12 14 16 17 17 16 16 18 18 18 20 20 20 18 15 14 13 14 14 15 15 16 17 17 17 16 15 14 14 13 12 11 10 10 10 9 8 8 10 10 10 9 7 7
15 13 13 14 14 15 16 17 19 22 23 22 20 19 19 17 14 11 12 15 16 16 16 15 16 18 17 17 19 20 20 19 16 15 14 13 14 15 16 17 17 17 17 17 16 15 14 13 12 10 9 10 9 9 8 9 11 12 10 7 6 5
17 16 16 15 15 15 16 18 20 23 23 22 21 20 17 15 14 13 13 15 15 14 14 14 15 17 16 16 18 19 19 18 17 16 14 13 14 14 15 17 17 17 17 16 16 15 15 14 12 10 9 9 8 8 9 11 12 11 10 8 6 6
17 18 17 18 18 17 18 19 21 22 22 23 22 21 18 15 14 13 13 14 15 15 14 13 15 17 17 17 18 18 18 17 15 15 13 13 14 15 15 16 17 17 17 17 15 14 14 14 13 13 12 10 8 5 5 8 11 10 9 8 6 6
17 17 17 17 18 19 20 20 21 21 21 21 21 20 18 16 13 12 13 14 15 15 14 13 16 18 18 18 18 17 17 16 16 14 14 14 15 16 16 16 17 17 18 18 16 14 14 14 14 15 14 11 9 6 3 3 7 9 9 9 7 6
17 17 17 18 19 21 22 22 21 20 21 21 20 18 17 15 13 12 13 13 13 14 13 13 16 19 19 19 18 17 17 18 17 15 15 15 15 16 16 17 17 17 17 18 17 15 13 13 14 13 13 11 10 8 6 3 3 5 7 10 10 9
19 17 17 19 20 22 23 24 23 22 23 23 22 20 17 15 14 13 13 13 13 14 14 14 16 19 21 20 18 19 19 19 18 17 16 16 15 16 17 17 17 17 17 17 16 14 12 11 11 10 11 12 12 10 8 5 3 4 6 8 9 11
20 18 17 18 20 22 24 25 25 24 24 24 23 22 19 16 15 14 15 14 13 14 15 15 16 19 21 20 18 19 20 19 18 17 17 16 15 16 16 16 16 16 15 15 15 15 13 11 9 10 11 12 13 12 9 6 4 5 7 7 6 9
20 19 18 18 19 21 24 26 25 24 23 23 23 23 21 19 16 15 16 15 14 15 15 16 18 19 20 19 19 20 20 19 17 16 16 15 15 15 15 15 15 15 14 14 14 14 13 12 11 11 12 12 12 11 9 6 5 5 7 7 5 7
19 19 19 20 21 22 24 26 25 25 24 22 23 24 23 20 16 16 16 16 15 16 17 18 20 21 21 19 19 19 19 18 17 16 15 15 15 15 15 14 14 14 14 13 13 14 13 13 12 12 12 12 11 10 8 6 5 4 5 6 5 6
19 18 18 20 22 24 26 27 27 26 25 23 23 23 23 21 16 15 16 17 17 17 19 20 22 23 22 20 19 18 18 18 17 16 15 14 15 15 15 14 14 14 14 13 13 13 13 12 12 12 11 10 10 9 8 6 4 3 5 6 6 5
18 18 19 20 21 22 24 27 27 26 24 23 24 24 23 20 16 14 15 16 17 17 19 21 22 23 21 19 18 17 17 17 16 16 15 14 15 15 14 13 13 13 14 13 12 12 12 12 12 11 11 10 9 8 7 6 5 4 4 5 6 5
16 18 21 22 21 20 21 25 26 26 25 25 26 25 23 20 16 14 14 15 16 18 20 20 20 20 20 18 17 17 16 16 16 16 15 15 15 15 14 13 12 12 12 12 12 12 12 12 12 11 10 9 9 8 6 6 6 5 3 3 4 4
17 18 21 22 22 20 21 24 25 24 25 27 28 26 24 21 18 16 14 14 16 18 20 20 18 19 19 18 17 17 16 15 16 16 16 15 15 15 14 13 13 13 12 12 12 12 12 12 11 10 9 9 8 7 6 6 6 5 3 2 3 3
16 16 17 20 21 21 23 24 24 23 25 28 27 25 24 21 19 17 15 14 15 19 22 20 18 18 18 17 16 17 16 16 16 16 16 15 15 15 14 14 13 12 12 12 12 12 12 12 11 11 10 9 9 8 7 7 5 4 4 4 4 3
Wind_Direction
183 182 184 185 188 191 191 195 198 201 203 206 208 205 200 193 183 179 177 173 176 183 186 192 188 183 199 209 202 189 167 160 164 170 172 173 173 170 174 183 190 189 183 173 148 126 116 108 100 81 70 73 72 72 71 66 62 58 57 56 54 53
185 185 186 188 193 196 198 199 202 204 205 206 206 202 195 187 181 180 183 187 191 200 202 208 212 201 211 219 207 199 187 170 165 169 173 176 177 175 177 186 194 194 189 183 169 146 126 116 105 82 70 74 71 71 72 67 64 62 61 62 61 58
189 189 190 193 197 200 202 204 206 207 208 205 202 201 197 194 190 188 194 201 206 211 209 212 220 214 218 222 207 200 196 182 170 169 173 177 179 178 179 187 194 196 193 191 182 165 139 121 107 86 76 76 71 68 68 66 61 57 62 68 70 65
192 191 193 197 200 203 205 208 212 212 213 209 205 206 204 203 200 200 204 209 211 211 207 207 211 210 218 219 204 201 197 188 178 172 174 177 179 179 181 187 192 196 196 196 190 177 156 132 110 89 83 80 73 65 64 60 50 45 49 57 65 65
191 192 195 199 202 205 208 212 216 217 217 212 207 206 206 205 204 206 206 207 207 203 202 203 203 206 216 214 200 200 198 192 183 175 176 177 179 179 181 187 191 194 196 197 193 182 165 146 116 93 86 81 75 66 60 50 44 44 40 41 50 55
190 193 197 201 204 206 210 216 218 216 214 208 204 204 204 204 204 205 201 202 203 198 202 205 205 207 214 212 200 198 196 193 184 177 178 177 179 180 181 187 190 192 194 195 193 185 170 156 133 104 89 81 74 61 54 49 51 54 45 37 40 48
194 198 199 201 205 209 213 216 216 213 209 204 201 202 202 202 201 203 204 204 202 200 205 209 209 210 213 212 205 199 196 193 183 178 179 178 180 181 182 186 189 190 192 194 191 186 177 166 153 123 99 83 68 51 46 53 61 60 54 51 50 51
199 202 201 202 205 211 217 218 215 212 209 202 199 199 201 206 204 204 210 208 203 203 209 214 217 217 215 210 204 199 195 193 184 179 179 180 180 181 183 185 187 188 190 192 191 188 183 178 170 146 113 83 66 48 43 56 66 61 62 65 59 48
204 205 204 205 205 209 217 221 218 212 207 200 199 199 202 211 208 206 212 211 208 209 211 219 224 217 207 202 198 195 194 192 186 181 180 181 182 182 184 186 187 188 189 190 190 188 188 189 186 170 132 87 66 45 44 58 64 61 68 69 58 51
206 206 207 208 208 210 215 219 218 212 203 196 199 201 205 212 209 212 216 211 212 214 214 217 220 211 203 201 196 193 194 193 190 187 182 182 184 184 184 186 187 188 191 191 189 189 190 193 194 189 166 113 63 27 35 60 65 63 72 72 67 70
209 209 210 211 212 214 218 221 219 212 202 194 198 200 205 212 211 217 218 211 211 214 215 214 213 213 210 210 204 196 195 194 192 191 186 184 186 186 185 187 188 189 192 194 192 191 190 191 197 199 188 161 87 10 20 56 63 66 75 75 73 78
216 215 214 215 217 219 222 225 223 216 207 199 199 197 200 210 215 218 212 208 213 214 215 216 213 216 217 217 212 201 197 194 191 191 188 187 187 187 187 188 190 191 194 196 196 194 191 191 199 201 193 183 191 334 2 54 54 69 76 70 69 80
222 219 218 218 221 223 225 228 229 223 214 204 202 200 197 204 210 212 206 207 216 217 216 217 215 218 219 219 215 206 202 198 194 194 189 189 190 189 189 191 192 193 197 199 199 199 197 198 201 201 200 200 197 201 188 183 81 93 89 73 73 87
225 223 222 222 224 227 228 231 231 226 219 209 207 208 204 199 194 199 207 208 215 219 219 221 220 222 224 221 217 211 206 202 200 198 192 189 191 191 191 193 193 195 199 200 202 202 204 205 203 200 205 208 196 182 182 198 195 153 98 78 97 96
229 229 228 227 228 229 232 235 233 227 222 215 214 216 209 199 189 193 206 210 213 219 223 227 227 227 229 228 223 214 205 204 203 199 196 192 192 193 193 193 193 195 199 201 203 205 205 206 204 201 204 204 191 183 189 202 203 190 161 129 135 102
234 235 234 233 232 231 234 236 235 231 228 220 217 217 212 213 206 199 205 209 213 220 224 227 228 229 233 233 229 220 207 202 203 200 197 196 195 195 194 193 194 197 201 202 203 205 206 205 205 201 200 201 195 196 205 206 203 204 199 179 167 138
237 240 240 239 236 235 236 236 235 233 230 224 218 217 216 225 223 209 209 212 215 223 225 226 226 227 232 232 228 224 214 203 202 200 196 197 195 193 194 195 196 198 204 206 206 209 208 204 201 198 198 201 201 202 207 208 205 204 202 193 186 176
241 243 244 243 239 239 238 235 235 232 229 225 220 219 221 226 226 219 219 222 225 227 225 225 226 224 229 230 224 222 216 205 202 199 194 192 187 185 190 197 201 201 202 208 213 213 209 203 198 198 201 202 204 207 203 209 214 205 200 198 195 194
249 248 249 247 243 241 238 234 234 229 227 227 223 222 225 227 228 228 229 234 237 237 231 227 226 224 225 227 221 218 215 204 199 197 191 188 184 185 188 194 202 203 201 204 214 216 211 207 203 203 206 203 202 206 202 206 218 210 202 205 206 211
254 254 253 251 248 244 238 235 234 227 227 230 227 225 229 232 233 233 234 239 243 242 238 230 224 222 222 224 220 216 214 203 195 194 191 189 189 192 194 196 200 203 205 206 208 214 214 212 211 205 200 195 186 185 196 207 217 211 206 215 217 212
253 253 251 251 252 249 243 240 237 230 229 231 232 232 234 236 236 235 235 240 244 243 238 231 226 222 220 220 216 214 216 206 196 197 195 195 197 200 205 207 205 206 214 212 204 206 210 211 211 198 182 177 177 182 197 206 212 220 219 225 229 218
245 246 243 243 248 251 250 248 239 231 232 235 238 240 241 243 241 238 242 245 245 243 237 228 224 223 222 218 210 209 215 209 203 204 201 201 205 210 213 214 210 206 208 211 206 203 204 205 205 200 189 182 183 187 199 206 205 222 232 232 235 223
243 239 236 238 244 245 246 244 235 229 234 239 244 248 249 250 246 242 247 247 241 238 235 226 219 220 221 215 209 209 211 207 205 204 200 203 206 212 215 214 212 207 203 202 204 206 207 208 205 201 194 185 187 193 207 219 215 221 232 234 233 224
256 249 241 241 242 241 238 235 231 229 234 241 247 255 257 253 249 243 244 244 240 236 235 229 221 216 214 209 209 213 211 204 203 203 201 206 208 208 211 211 210 210 208 203 201 205 209 214 216 209 195 182 188 202 207 218 224 225 226 224 221 217
263 260 254 248 240 236 235 233 231 231 235 240 245 253 257 254 251 249 244 242 240 237 234 230 222 213 206 202 203 212 215 206 204 207 205 211 213 210 209 211 213 213 214 212 209 213 213 215 218 215 209 194 188 206 214 214 222 229 223 216 215 213
259 259 255 251 242 236 234 233 231 232 235 240 246 254 262 264 260 254 247 243 242 239 233 225 216 206 202 202 200 207 218 215 210 212 212 213 214 214 213 213 217 219 220 219 219 222 221 218 213 207 212 213 202 216 232 217 214 215 209 207 212 211
254 254 250 247 243 239 237 235 233 234 236 240 247 257 264 266 261 254 246 243 243 239 231 221 210 200 201 208 205 205 216 219 214 213 215 213 212 215 217 217 220 223 224 224 225 227 225 222 214 208 213 217 217 229 253 233 212 202 192 192 199 203
253 250 248 244 242 242 243 242 240 238 238 239 243 252 259 260 255 251 245 242 242 236 227 218 210 203 203 208 207 202 205 210 209 208 211 211 212 215 215 218 221 223 225 225 226 225 223 223 219 218 220 215 215 226 242 263 223 208 200 189 185 190
257 250 248 247 245 245 246 248 248 245 243 243 244 249 255 256 250 244 241 241 239 232 222 216 212 207 205 206 205 202 199 202 205 205 207 208 212 216 216 217 220 221 223 222 221 218 217 222 227 233 234 226 220 222 231 242 220 211 214 198 189 194
266 255 247 247 251 251 250 251 251 250 249 250 251 253 256 256 250 240 237 240 237 232 224 215 208 204 203 202 201 201 199 201 205 204 205 207 211 215 217 218 218 218 220 219 218 216 214 216 225 236 241 238 231 226 227 237 241 223 213 210 207 204
277 269 254 246 249 255 256 254 254 253 253 255 257 259 260 259 254 242 238 239 235 232 226 212 201 198 201 198 196 199 200 201 206 209 208 209 212 215 215 216 215 214 215 218 220 220 216 213 216 223 232 239 239 237 236 247 278 265 224 219 220 205
282 278 268 255 251 257 258 254 253 254 254 255 257 260 263 264 259 249 245 238 229 227 222 207 196 196 200 198 196 199 200 202 207 212 213 214 216 215 213 213 214 212 211 213 216 217 215 214 213 212 218 230 235 238 239 253 285 282 237 233 241 214
286 283 278 263 257 263 260 250 248 251 254 256 257 259 263 265 260 252 247 235 226 224 216 204 196 198 199 199 200 202 202 205 209 212 216 220 220 216 213 213 213 212 210 208 208 209 211 212 213 209 208 217 225 228 235 251 263 236 221 231 237 223
292 290 284 272 269 271 261 249 246 249 252 256 258 259 261 264 258 252 247 235 229 227 217 207 202 201 200 200 203 203 205 209 211 213 216 221 221 218 217 217 214 209 207 207 206 206 209 209 209 207 203 206 215 221 231 240 220 197 220 235 236 234
299 293 285 278 277 274 259 249 247 250 253 256 259 260 263 266 261 256 251 240 235 229 220 212 207 204 202 202 202 202 205 209 210 211 214 217 219 219 219 216 210 207 206 208 207 206 207 206 206 205 201 201 207 210 219 216 192 187 228 242 240 255
301 294 286 280 279 274 260 251 248 252 257 260 262 263 265 267 265 261 255 245 239 231 220 213 210 207 204 203 201 201 205 207 206 208 210 211 213 217 218 210 204 205 206 205 205 205 204 202 201 199 196 198 200 196 198 195 188 202 229 224 218 238
296 289 283 279 275 269 263 258 253 254 259 264 267 267 266 265 264 263 257 248 241 230 220 212 208 205 202 200 201 203 205 205 205 207 207 207 209 213 214 210 206 205 204 204 204 201 198 196 196 193 192 194 193 187 187 189 197 220 226 212 206 203